RYR4SE LYNI-ESSA

Flight info

Callsign RYR4SE
Flight time N/A
Altitude 28000
Route RAVAK DCT NEPOS DCT OKLOP DCT OSVIX DCT PARAK DCT LITKU DCT BABKO DCT RATOR DCT PENOR M607 ARMOD Z228 NILUG
Aircraft B738/M-SDE2E3FGHIRWXY/LB1

Departure

Time N/A
Airport Niš Constantine the Great Airport (LYNI)

Arrival

Time 2026-05-05 20:34
Airport Stockholm-Arlanda Airport (ESSA)
Time Latitude Longitude Altitude Speed Heading
2026-05-05 19:35 54.56015 17.63144 27869 ft 386 kts 338°
2026-05-05 19:35 54.58605 17.62044 27870 ft 387 kts 338°
2026-05-05 19:35 54.61243 17.60922 27874 ft 387 kts 338°
2026-05-05 19:35 54.63837 17.59819 27877 ft 387 kts 338°
2026-05-05 19:36 54.66437 17.58713 27874 ft 386 kts 338°
2026-05-05 19:36 54.69037 17.57606 27876 ft 386 kts 338°
2026-05-05 19:36 54.71619 17.56505 27875 ft 385 kts 338°
2026-05-05 19:36 54.74248 17.55382 27880 ft 385 kts 338°
2026-05-05 19:37 54.76855 17.54266 27878 ft 386 kts 338°
2026-05-05 19:37 54.79467 17.53143 27880 ft 388 kts 338°
2026-05-05 19:37 54.82061 17.52030 27882 ft 386 kts 338°
2026-05-05 19:37 54.84649 17.50919 27881 ft 386 kts 338°
2026-05-05 19:38 54.87256 17.49797 27881 ft 387 kts 338°
2026-05-05 19:38 54.89875 17.48670 27885 ft 386 kts 338°
2026-05-05 19:38 54.92487 17.47544 27883 ft 386 kts 338°
2026-05-05 19:38 54.95078 17.46424 27884 ft 386 kts 338°
2026-05-05 19:39 54.97668 17.45305 27884 ft 384 kts 338°
2026-05-05 19:39 55.00251 17.44187 27883 ft 384 kts 338°
2026-05-05 19:39 55.02852 17.43058 27884 ft 384 kts 338°
2026-05-05 19:39 55.05445 17.41930 27885 ft 384 kts 338°
2026-05-05 19:40 55.08023 17.40808 27884 ft 385 kts 338°
2026-05-05 19:40 55.10641 17.39665 27885 ft 385 kts 338°
2026-05-05 19:40 55.13220 17.38538 27885 ft 386 kts 338°
2026-05-05 19:40 55.15826 17.37400 27883 ft 384 kts 338°
2026-05-05 19:41 55.18177 17.36373 27885 ft 385 kts 338°
2026-05-05 19:41 55.20744 17.35248 27886 ft 386 kts 338°
2026-05-05 19:41 55.23363 17.34099 27885 ft 385 kts 337°
2026-05-05 19:41 55.25934 17.32974 27881 ft 383 kts 337°
2026-05-05 19:42 55.28520 17.31841 27884 ft 383 kts 337°
2026-05-05 19:42 55.31080 17.30712 27883 ft 384 kts 337°
2026-05-05 19:42 55.33671 17.29570 27881 ft 383 kts 337°
2026-05-05 19:42 55.36254 17.28432 27879 ft 382 kts 337°
2026-05-05 19:43 55.38812 17.27300 27880 ft 384 kts 337°
2026-05-05 19:43 55.41405 17.26150 27876 ft 384 kts 337°
2026-05-05 19:43 55.44002 17.24999 27880 ft 383 kts 338°
2026-05-05 19:43 55.46566 17.23862 27877 ft 383 kts 338°
2026-05-05 19:44 55.49159 17.22711 27876 ft 383 kts 338°
2026-05-05 19:44 55.51762 17.21551 27878 ft 384 kts 338°
2026-05-05 19:44 55.57192 17.19128 27874 ft 384 kts 338°
2026-05-05 19:45 55.59774 17.17980 27874 ft 383 kts 338°
2026-05-05 19:45 55.62348 17.16989 27875 ft 387 kts 342°
2026-05-05 19:45 55.65055 17.16376 27875 ft 393 kts 348°
2026-05-05 19:45 55.67783 17.16267 27878 ft 397 kts 353°
2026-05-05 19:46 55.70565 17.16442 27876 ft 399 kts 355°
2026-05-05 19:46 55.73335 17.16739 27875 ft 401 kts 356°
2026-05-05 19:46 55.76080 17.17070 27873 ft 400 kts 356°
2026-05-05 19:46 55.78844 17.17401 27874 ft 400 kts 356°
2026-05-05 19:47 55.81607 17.17719 27872 ft 399 kts 356°
2026-05-05 19:47 55.84393 17.18024 27871 ft 398 kts 356°
2026-05-05 19:47 55.87144 17.18313 27873 ft 399 kts 356°
2026-05-05 19:47 55.89928 17.18595 27872 ft 399 kts 355°
2026-05-05 19:48 55.92687 17.18869 27876 ft 399 kts 355°
2026-05-05 19:48 55.95444 17.19139 27880 ft 399 kts 355°
2026-05-05 19:48 55.98228 17.19409 27873 ft 398 kts 355°
2026-05-05 19:48 56.00990 17.19676 27872 ft 398 kts 355°
2026-05-05 19:49 56.03760 17.19943 27878 ft 398 kts 355°
2026-05-05 19:49 56.05563 17.20117 27879 ft 398 kts 356°
2026-05-05 19:49 56.09268 17.20475 27887 ft 397 kts 355°
2026-05-05 19:49 56.12016 17.20741 27890 ft 397 kts 355°
2026-05-05 19:50 56.14769 17.21006 27889 ft 398 kts 355°
2026-05-05 19:50 56.17532 17.21273 27890 ft 399 kts 355°
2026-05-05 19:50 56.20293 17.21541 27893 ft 399 kts 355°
2026-05-05 19:50 56.23076 17.21813 27894 ft 399 kts 355°
2026-05-05 19:51 56.25840 17.22082 27893 ft 399 kts 355°
2026-05-05 19:51 56.28623 17.22353 27894 ft 399 kts 355°
2026-05-05 19:51 56.31370 17.22622 27891 ft 399 kts 355°
2026-05-05 19:51 56.34132 17.22893 27892 ft 398 kts 355°
2026-05-05 19:52 56.36919 17.23167 27896 ft 399 kts 355°
2026-05-05 19:52 56.39687 17.23439 27893 ft 399 kts 355°
2026-05-05 19:52 56.42465 17.23712 27892 ft 399 kts 355°
2026-05-05 19:52 56.45202 17.23982 27894 ft 399 kts 355°
2026-05-05 19:53 56.47983 17.24256 27894 ft 398 kts 355°
2026-05-05 19:53 56.50761 17.24530 27896 ft 399 kts 355°
2026-05-05 19:53 56.53539 17.24804 27896 ft 398 kts 355°
2026-05-05 19:53 56.56296 17.25077 27895 ft 398 kts 355°
2026-05-05 19:54 56.59061 17.25351 27894 ft 399 kts 355°
2026-05-05 19:54 56.61808 17.25622 27889 ft 400 kts 355°
2026-05-05 19:54 56.64589 17.25899 27888 ft 399 kts 355°
2026-05-05 19:54 56.67389 17.26178 27889 ft 399 kts 355°
2026-05-05 19:55 56.70145 17.26454 27886 ft 399 kts 355°
2026-05-05 19:55 56.72939 17.26733 27885 ft 399 kts 355°
2026-05-05 19:55 56.75695 17.27008 27885 ft 400 kts 355°
2026-05-05 19:55 56.78460 17.27283 27886 ft 400 kts 355°
2026-05-05 19:56 56.81250 17.27564 27885 ft 400 kts 355°
2026-05-05 19:56 56.84044 17.27846 27884 ft 399 kts 355°
2026-05-05 19:56 56.86782 17.28123 27884 ft 399 kts 355°
2026-05-05 19:56 56.89560 17.28403 27887 ft 400 kts 355°
2026-05-05 19:57 56.92345 17.28682 27884 ft 400 kts 355°
2026-05-05 19:57 56.94210 17.28871 27884 ft 399 kts 355°
2026-05-05 19:57 56.97898 17.29247 27885 ft 399 kts 355°
2026-05-05 19:57 57.00682 17.29529 27885 ft 400 kts 355°
2026-05-05 19:58 57.03455 17.29810 27882 ft 399 kts 355°
2026-05-05 19:58 57.06215 17.30092 27883 ft 399 kts 354°
2026-05-05 19:58 57.08986 17.30374 27884 ft 400 kts 355°
2026-05-05 19:58 57.11751 17.30655 27884 ft 400 kts 354°
2026-05-05 19:59 57.14528 17.30938 27884 ft 400 kts 354°
2026-05-05 19:59 57.17297 17.31219 27885 ft 401 kts 354°
2026-05-05 19:59 57.20077 17.31504 27884 ft 400 kts 354°
2026-05-05 19:59 57.22855 17.31789 27884 ft 400 kts 354°
2026-05-05 20:00 57.25598 17.32071 27884 ft 401 kts 354°
2026-05-05 20:00 57.28393 17.32359 27884 ft 400 kts 354°
2026-05-05 20:00 57.31171 17.32646 27885 ft 400 kts 354°
2026-05-05 20:00 57.33949 17.32932 27883 ft 400 kts 354°
2026-05-05 20:01 57.36744 17.33221 27887 ft 401 kts 354°
2026-05-05 20:01 57.39493 17.33507 27886 ft 400 kts 354°
2026-05-05 20:01 57.42289 17.33798 27889 ft 401 kts 354°
2026-05-05 20:01 57.45071 17.34086 27888 ft 401 kts 354°
2026-05-05 20:02 57.47819 17.34378 27888 ft 400 kts 355°
2026-05-05 20:02 57.50595 17.34844 27888 ft 404 kts 359°
2026-05-05 20:02 57.53377 17.35668 27888 ft 407 kts
2026-05-05 20:02 57.56159 17.36710 27888 ft 409 kts
2026-05-05 20:03 57.58907 17.37830 27888 ft 410 kts
2026-05-05 20:03 57.61707 17.39004 27888 ft 409 kts
2026-05-05 20:03 57.64475 17.40162 27888 ft 411 kts
2026-05-05 20:03 57.67263 17.41317 27889 ft 410 kts
2026-05-05 20:04 57.70002 17.42445 27890 ft 408 kts
2026-05-05 20:04 57.72794 17.43584 27892 ft 410 kts
2026-05-05 20:04 57.75563 17.44704 27896 ft 411 kts
2026-05-05 20:04 57.78374 17.45838 27897 ft 410 kts
2026-05-05 20:05 57.81144 17.46955 27899 ft 410 kts
2026-05-05 20:05 57.83945 17.48084 27900 ft 409 kts
2026-05-05 20:05 57.86700 17.49194 27905 ft 411 kts
2026-05-05 20:05 57.89515 17.50328 27903 ft 410 kts
2026-05-05 20:06 57.92303 17.51454 27905 ft 410 kts
2026-05-05 20:06 57.95085 17.52580 27903 ft 409 kts
2026-05-05 20:06 57.97832 17.53692 27905 ft 409 kts
2026-05-05 20:06 58.00630 17.54828 27904 ft 409 kts
2026-05-05 20:07 58.03399 17.55952 27906 ft 409 kts
2026-05-05 20:07 58.06178 17.57088 27898 ft 402 kts
2026-05-05 20:07 58.08845 17.58190 27727 ft 393 kts
2026-05-05 20:07 58.11498 17.59284 27379 ft 388 kts
2026-05-05 20:08 58.14099 17.60350 26920 ft 387 kts
2026-05-05 20:08 58.16730 17.61422 26421 ft 386 kts
2026-05-05 20:08 58.19332 17.62482 25927 ft 385 kts
2026-05-05 20:08 58.21930 17.63542 25433 ft 384 kts
2026-05-05 20:09 58.24519 17.64603 24945 ft 383 kts
2026-05-05 20:09 58.27114 17.65669 24452 ft 382 kts
2026-05-05 20:09 58.29674 17.66724 23976 ft 380 kts
2026-05-05 20:09 58.32262 17.67793 23494 ft 379 kts
2026-05-05 20:10 58.34826 17.68854 23024 ft 377 kts
2026-05-05 20:10 58.37367 17.69907 22561 ft 375 kts
2026-05-05 20:10 58.39878 17.70950 22105 ft 373 kts
2026-05-05 20:10 58.42424 17.72009 21645 ft 371 kts
2026-05-05 20:11 58.44905 17.73041 21212 ft 369 kts
2026-05-05 20:11 58.47403 17.74083 20764 ft 367 kts
2026-05-05 20:11 58.49880 17.75117 20337 ft 364 kts
2026-05-05 20:11 58.52313 17.76135 19915 ft 361 kts
2026-05-05 20:12 58.54757 17.77160 19498 ft 358 kts
2026-05-05 20:12 58.57185 17.78180 19139 ft 353 kts
2026-05-05 20:12 58.59536 17.79174 18894 ft 346 kts
2026-05-05 20:12 58.61881 17.80163 18643 ft 343 kts
2026-05-05 20:13 58.64203 17.81131 18401 ft 344 kts
2026-05-05 20:13 58.66505 17.82090 18162 ft 342 kts
2026-05-05 20:13 58.68820 17.83065 17922 ft 339 kts
2026-05-05 20:13 58.71137 17.84042 17688 ft 338 kts
2026-05-05 20:14 58.73420 17.85010 17446 ft 336 kts
2026-05-05 20:14 58.75684 17.85970 17199 ft 333 kts
2026-05-05 20:14 58.77932 17.86922 16955 ft 334 kts
2026-05-05 20:14 58.80167 17.87920 16887 ft 330 kts
2026-05-05 20:15 58.82391 17.89243 16887 ft 339 kts 11°
2026-05-05 20:15 58.84565 17.90998 16884 ft 345 kts 15°
2026-05-05 20:15 58.86741 17.93037 16886 ft 348 kts 18°
2026-05-05 20:15 58.88900 17.95160 16884 ft 348 kts 18°
2026-05-05 20:16 58.91022 17.97254 16886 ft 346 kts 18°
2026-05-05 20:16 58.93188 17.99367 16881 ft 347 kts 17°
2026-05-05 20:16 58.95339 18.01437 16890 ft 346 kts 17°
2026-05-05 20:16 58.97476 18.03478 16881 ft 345 kts 17°
2026-05-05 20:17 58.99627 18.05522 16891 ft 348 kts 17°
2026-05-05 20:17 59.01808 18.07591 16883 ft 347 kts 17°
2026-05-05 20:17 59.03959 18.09637 16879 ft 347 kts 17°
2026-05-05 20:17 59.06108 18.11685 16901 ft 348 kts 17°
2026-05-05 20:18 59.08279 18.13674 16886 ft 340 kts 13°
2026-05-05 20:18 59.10487 18.15145 16882 ft 332 kts
2026-05-05 20:18 59.12698 18.15815 16859 ft 322 kts 354°
2026-05-05 20:18 59.14935 18.16097 16862 ft 317 kts 351°
2026-05-05 20:19 59.17108 18.16245 16884 ft 319 kts 350°
2026-05-05 20:19 59.19326 18.16395 16762 ft 318 kts 351°
2026-05-05 20:19 59.21533 18.16596 16439 ft 314 kts 352°
2026-05-05 20:19 59.23692 18.16830 16084 ft 312 kts 352°
2026-05-05 20:20 59.25845 18.17082 15679 ft 309 kts 353°
2026-05-05 20:20 59.27977 18.17338 15328 ft 306 kts 353°
2026-05-05 20:20 59.30059 18.17588 14960 ft 303 kts 353°
2026-05-05 20:20 59.32163 18.17838 14589 ft 300 kts 353°
2026-05-05 20:21 59.34204 18.18079 14247 ft 297 kts 354°
2026-05-05 20:21 59.36273 18.18321 13877 ft 295 kts 354°
2026-05-05 20:21 59.38302 18.18560 13505 ft 293 kts 355°
2026-05-05 20:21 59.40317 18.18799 13142 ft 291 kts 355°
2026-05-05 20:22 59.42327 18.19037 12793 ft 289 kts 356°
2026-05-05 20:22 59.44302 18.19268 12426 ft 287 kts 356°
2026-05-05 20:22 59.46302 18.19502 12057 ft 285 kts 356°
2026-05-05 20:22 59.48253 18.19732 11709 ft 283 kts 357°
2026-05-05 20:23 59.50216 18.19965 11356 ft 280 kts 358°
2026-05-05 20:23 59.52132 18.20193 11006 ft 278 kts 358°
2026-05-05 20:23 59.54041 18.20560 10648 ft 277 kts
2026-05-05 20:23 59.55959 18.21177 10244 ft 278 kts
2026-05-05 20:24 59.57844 18.21901 9869 ft 276 kts
2026-05-05 20:24 59.59712 18.22636 9527 ft 274 kts
2026-05-05 20:24 59.61560 18.23336 9186 ft 272 kts
2026-05-05 20:24 59.63399 18.24013 8869 ft 268 kts
2026-05-05 20:25 59.65232 18.24680 8566 ft 265 kts
2026-05-05 20:25 59.67014 18.25326 8266 ft 262 kts
2026-05-05 20:25 59.68809 18.25978 7942 ft 260 kts
2026-05-05 20:25 59.70567 18.26622 7641 ft 257 kts
2026-05-05 20:26 59.72309 18.27263 7339 ft 254 kts
2026-05-05 20:26 59.74030 18.27896 7047 ft 251 kts
2026-05-05 20:26 59.75737 18.28519 6745 ft 248 kts
2026-05-05 20:26 59.77413 18.29130 6459 ft 245 kts
2026-05-05 20:27 59.79066 18.29736 6177 ft 243 kts
2026-05-05 20:27 59.80742 18.30221 5754 ft 244 kts 360°
2026-05-05 20:27 59.82404 18.29684 5314 ft 242 kts 334°
2026-05-05 20:27 59.83730 18.27818 5090 ft 236 kts 314°
2026-05-05 20:28 59.84730 18.25291 4877 ft 230 kts 301°
2026-05-05 20:28 59.85253 18.22326 4675 ft 227 kts 277°
2026-05-05 20:28 59.85146 18.19276 4482 ft 224 kts 259°
2026-05-05 20:28 59.84633 18.16385 4274 ft 222 kts 246°
2026-05-05 20:29 59.83869 18.13717 4060 ft 219 kts 241°
2026-05-05 20:29 59.83064 18.11140 3792 ft 219 kts 241°
2026-05-05 20:29 59.82284 18.08594 3533 ft 218 kts 242°
2026-05-05 20:29 59.81518 18.06019 3290 ft 217 kts 242°
2026-05-05 20:30 59.80740 18.03438 3062 ft 217 kts 239°
2026-05-05 20:30 59.79704 18.01341 2841 ft 215 kts 210°
2026-05-05 20:30 59.78298 18.00547 2626 ft 205 kts 185°
2026-05-05 20:30 59.76936 18.00320 2481 ft 192 kts 188°
2026-05-05 20:31 59.75657 17.99849 2433 ft 185 kts 193°
2026-05-05 20:31 59.74402 17.99329 2158 ft 188 kts 191°
2026-05-05 20:31 59.73106 17.98876 1855 ft 187 kts 190°
2026-05-05 20:31 59.71856 17.98432 1592 ft 177 kts 191°
2026-05-05 20:32 59.70717 17.98001 1366 ft 162 kts 191°
2026-05-05 20:32 59.69649 17.97620 1119 ft 151 kts 190°
2026-05-05 20:32 59.68632 17.97249 934 ft 150 kts 191°
2026-05-05 20:32 59.67610 17.96875 727 ft 148 kts 190°
2026-05-05 20:33 59.66607 17.96517 508 ft 148 kts 190°
2026-05-05 20:33 59.65588 17.96151 290 ft 147 kts 190°
2026-05-05 20:33 59.64604 17.95783 129 ft 140 kts 191°
2026-05-05 20:33 59.63780 17.95478 126 ft 92 kts 189°
2026-05-05 20:34 59.63330 17.95316 136 ft 41 kts 191°
2026-05-05 20:34 59.63208 17.95271 140 ft 0 kts 190°
2026-05-05 20:34 59.63188 17.95265 140 ft 5 kts 189°
2026-05-05 20:34 59.63136 17.95244 141 ft 10 kts 192°
2026-05-05 20:35 59.63058 17.95193 143 ft 13 kts 203°
2026-05-05 20:35 59.62980 17.95109 145 ft 12 kts 213°
2026-05-05 20:35 59.62914 17.95003 144 ft 12 kts 221°
2026-05-05 20:35 59.62903 17.94984 144 ft 0 kts 221°
2026-05-05 20:36 59.62900 17.94980 144 ft 1 kts 221°
2026-05-05 20:37 59.62881 17.94947 145 ft 5 kts 221°
2026-05-05 20:37 59.62851 17.94863 145 ft 8 kts 260°
2026-05-05 20:37 59.62879 17.94769 143 ft 9 kts 338°
2026-05-05 20:37 59.62954 17.94776 142 ft 13 kts
2026-05-05 20:38 59.63068 17.94820 139 ft 20 kts 12°
2026-05-05 20:38 59.63217 17.94875 134 ft 23 kts 10°
2026-05-05 20:38 59.63377 17.94935 131 ft 24 kts 11°
2026-05-05 20:38 59.63526 17.94986 128 ft 19 kts 10°
2026-05-05 20:39 59.63667 17.95039 125 ft 21 kts 11°
2026-05-05 20:39 59.63814 17.95095 122 ft 22 kts
2026-05-05 20:39 59.63971 17.95147 119 ft 23 kts 11°
2026-05-05 20:39 59.64135 17.95211 116 ft 24 kts 11°
2026-05-05 20:40 59.64266 17.95226 115 ft 18 kts 349°
2026-05-05 20:40 59.64371 17.95087 113 ft 19 kts 305°
2026-05-05 20:40 59.64405 17.94837 112 ft 18 kts 264°
2026-05-05 20:40 59.64358 17.94616 115 ft 16 kts 241°
2026-05-05 20:41 59.64297 17.94416 113 ft 18 kts 233°
2026-05-05 20:41 59.64220 17.94212 112 ft 18 kts 239°
2026-05-05 20:41 59.64158 17.93994 111 ft 18 kts 240°
2026-05-05 20:41 59.64090 17.93788 113 ft 17 kts 238°
2026-05-05 20:42 59.64037 17.93604 117 ft 13 kts 257°
2026-05-05 20:42 59.64090 17.93510 118 ft 12 kts 358°
2026-05-05 20:42 59.64185 17.93510 118 ft 15 kts
2026-05-05 20:42 59.64294 17.93509 118 ft 15 kts 356°
2026-05-05 20:43 59.64299 17.93458 119 ft 6 kts 171°
2026-05-05 20:43 59.64232 17.93486 119 ft 12 kts 164°
2026-05-05 20:43 59.64137 17.93511 118 ft 14 kts 181°
2026-05-05 20:43 59.64037 17.93508 118 ft 14 kts 187°
2026-05-05 20:44 59.63990 17.93378 123 ft 10 kts 269°
2026-05-05 20:44 59.64001 17.93260 126 ft 9 kts 289°
2026-05-05 20:44 59.64034 17.93124 128 ft 13 kts 296°
2026-05-05 20:44 59.64085 17.92924 128 ft 19 kts 299°
2026-05-05 20:45 59.64227 17.92391 119 ft 24 kts 297°
2026-05-05 20:45 59.64306 17.92114 115 ft 17 kts 315°
2026-05-05 20:45 59.64422 17.92101 114 ft 18 kts 12°
2026-05-05 20:46 59.64556 17.92148 114 ft 21 kts 10°
2026-05-05 20:46 59.64688 17.92201 112 ft 14 kts 19°
2026-05-05 20:46 59.64713 17.92353 114 ft 11 kts 101°
2026-05-05 20:46 59.64689 17.92520 119 ft 13 kts 108°
2026-05-05 20:47 59.64683 17.92558 120 ft 2 kts 108°
2026-05-05 20:47 59.64678 17.92591 122 ft 2 kts 102°
2026-05-05 20:47 59.64686 17.92631 123 ft 4 kts 45°
2026-05-05 20:47 59.64715 17.92668 124 ft 0 kts 30°